Regional Weather Roundup
Issued by NWS

Home | Current Version | Previous Version | Text Only | Print | Product List | Glossary Off
Versions: 1 2 3 4 5 6 7 8 9 10 11 12 13 14 15 16 17 18 19 20 21 22 23 24 25 26 27 28 29 30 31 32 33 34 35 36 37 38 39 40 41 42 43 44 45 46 47 48 49 50

000
ASUS45 KCYS 261510
RWRWY

WYOMING REGIONAL WEATHER ROUNDUP
NATIONAL WEATHER SERVICE CHEYENNE WY
800 AM MST SUN FEB 26 2017

NOTE:  "FAIR" INDICATES FEW OR NO CLOUDS BELOW 12,000 FEET
WITH NO SIGNIFICANT WEATHER AND/OR OBSTRUCTIONS TO VISIBILITY.

WYZ001-261600-
YELLOWSTONE NATIONAL PARK

CITY           SKY/WX    TMP DP  RH WIND       PRES   REMARKS
LK YELLOWSTONE   N/A      6   3  87 CALM      29.72S
W YELLOWSTONE  NOT AVBL

$$
WYZ002>013-054>058-071-098>099-261600-
NORTHERN WYOMING

CITY           SKY/WX    TMP DP  RH WIND       PRES   REMARKS
JACKSON        LGT SNOW  12  10  92 SW3       29.79R
CODY           FAIR      24   2  38 W17G28    29.72R WCI  11
GREYBULL       FAIR      20  13  74 S3        29.78R
WORLAND        FAIR      15   9  76 S5        29.77R WCI   8
SHERIDAN       FAIR      21  11  65 S3        29.73R
BUFFALO        FAIR      18   2  49 W8        29.71R WCI   8
GILLETTE       FAIR      21   7  54 SW10      29.72R WCI  10
HULETT         FAIR      23  10  58 SW10      29.73S WCI  12
NEWCASTLE      FAIR       7   3  85 E8        29.79R WCI  -6

$$
WYZ014>020-022>026-101>103-261600-
CENTRAL WYOMING

CITY           SKY/WX    TMP DP  RH WIND       PRES   REMARKS
BIG PINEY      FAIR     -14 -17  87 E6        29.81R WCI -28
PINEDALE       FAIR     -11 -17  77 W7        29.81R WCI -26
DUBOIS         FAIR       7  -4  61 N14       29.69R WCI -10
LANDER         FAIR       7  -7  52 W5        29.73R WCI  -2
RIVERTON       FAIR      10  -3  55 W16       29.73R WCI  -7
CASPER         FAIR      12   2  64 SW20G28   29.75R WCI  -6
DOUGLAS        FAIR       8  -2  63 CALM      29.78R

$$
WYZ021-027>030-104>119-261600-
SOUTHERN WYOMING

CITY           SKY/WX    TMP DP  RH WIND       PRES   REMARKS
EVANSTON       FAIR       2  -3  80 SW12      29.81S WCI -15
KEMMERER         N/A    N/A N/A N/A W7        29.80R
FORT BRIDGER   FAIR       7   0  73 SW10      29.84S WCI  -8
ROCK SPRINGS   FAIR       8   1  73 SW15      29.82R WCI  -9
DIXON            N/A      1  -5  78 CALM      29.91R
RAWLINS        FAIR      11   0  61 SW18G25   29.79S WCI  -7
SARATOGA       FAIR       9   0  66 SE7       29.83R WCI  -3
LARAMIE        FAIR      10  -2  58 SW18      29.72S WCI  -8
CHEYENNE       FAIR      18   0  45 W17       29.76R WCI   3
TORRINGTON     FAIR      15   2  56 NW7       29.82R WCI   5
PINE BLUFFS    FAIR      14   3  62 NW15G21   29.81R WCI  -1

$$



USA.gov is the U.S. government's official web portal to all federal, state and local government web resources and services.